Wind_Speed
31 31 31 31 31 31 31 31 31 31 32 31 31 30 30 30 32 35 37 40 42 44 47 51 54 55 57 57 57 57 59 59 59 59 58 57 56 54 57 34 51 46 48
32 31 29 28 28 27 26 26 26 27 28 28 29 29 29 28 29 30 31 36 40 42 45 47 49 51 54 56 58 59 61 61 59 61 61 63 62 61 60 56 45 56 53
29 28 26 24 22 21 21 22 24 25 25 25 25 26 27 28 29 24 33 34 36 40 43 45 47 48 50 53 55 57 59 60 60 59 61 63 66 66 65 62 60 54 53
23 21 19 18 17 18 19 21 23 24 23 25 25 25 26 28 30 37 40 40 40 41 42 43 46 47 49 51 53 54 56 58 60 60 60 61 61 65 68 67 66 64 64
16 14 13 13 15 16 17 19 21 21 23 24 27 27 25 32 34 39 38 35 31 33 36 39 41 43 45 46 46 46 47 49 52 55 57 58 61 62 64 68 69 68 66
11 10 10 11 15 17 18 19 20 23 25 27 26 25 28 28 35 34 28 29 30 31 33 37 37 38 39 40 39 38 39 39 41 44 48 51 54 56 61 64 66 69 68
9 8 11 15 16 16 18 18 20 23 25 24 23 26 26 27 34 27 26 27 26 25 22 23 28 30 31 33 34 34 34 34 36 37 39 42 45 47 50 55 54 59 66
8 11 15 16 16 17 18 19 20 21 22 22 22 23 23 26 27 25 23 24 22 22 20 17 14 17 21 25 28 27 28 31 33 35 37 40 42 43 43 42 45 52 55
11 16 17 17 18 18 20 19 20 21 21 21 21 22 23 23 23 26 25 25 23 21 20 17 15 14 14 17 20 24 27 31 32 35 38 41 42 42 42 42 44 50 51
15 19 18 18 19 20 21 22 20 20 20 20 20 22 22 22 24 24 24 22 23 21 18 16 14 15 17 20 24 26 28 32 33 34 36 39 42 44 44 41 39 45 53
20 19 20 21 22 23 23 23 22 20 21 20 19 20 21 21 23 23 23 23 23 22 23 20 18 18 18 20 22 24 26 28 28 28 31 34 36 39 39 38 37 36 44
28 25 24 23 23 25 26 25 24 22 23 22 19 18 19 19 21 21 22 24 26 25 23 24 23 21 22 21 22 24 26 26 26 25 26 29 29 28 30 29 30 35 34
28 25 24 24 25 26 26 23 23 22 22 23 22 19 19 19 19 20 21 22 23 24 23 22 24 25 25 23 23 24 24 23 21 21 23 24 24 23 22 27 31 32 30
25 23 22 21 23 26 26 23 23 22 22 22 23 22 20 19 20 20 21 20 21 21 22 23 23 25 27 25 23 23 23 22 20 20 20 18 18 18 16 16 20 25 25
22 24 23 22 24 25 23 21 22 22 22 22 21 21 21 20 21 21 22 21 20 20 21 22 22 23 26 29 29 23 22 21 18 17 16 14 13 16 18 18 19 22 21
22 21 21 22 21 23 24 23 22 22 22 22 23 23 23 23 23 24 23 23 23 22 22 23 24 25 24 24 27 29 22 22 20 16 16 16 16 17 18 19 19 19 22
25 23 23 24 24 23 23 22 22 23 23 21 22 22 24 25 24 24 25 25 24 24 25 26 25 26 26 25 24 26 24 21 20 19 16 16 16 19 20 22 22 22 23
32 29 28 26 25 23 23 21 21 23 24 26 24 23 22 23 24 24 25 24 24 25 24 25 26 27 27 28 28 26 25 18 23 22 20 19 18 20 20 21 23 24 24
32 33 33 30 29 27 26 23 21 23 23 23 24 24 24 24 25 25 25 25 24 25 25 23 24 25 27 26 27 29 28 20 18 22 22 22 21 20 24 24 22 22 22
30 30 32 32 31 31 30 26 25 26 24 24 24 24 25 25 25 24 25 25 24 23 24 24 22 22 24 26 27 26 26 24 15 19 21 22 23 23 23 25 25 24 24
36 34 33 34 32 32 32 32 30 26 30 24 23 25 25 25 25 27 26 24 25 25 24 24 23 22 22 21 22 24 25 23 18 16 21 22 24 23 24 25 27 28 27
36 36 37 33 32 33 34 32 32 31 32 27 27 27 26 27 26 26 27 26 25 24 24 25 24 23 22 22 21 20 21 22 21 17 15 18 21 23 24 26 28 30 26
36 36 36 35 33 33 33 31 31 33 30 29 29 30 29 28 28 27 27 28 28 26 25 24 24 24 22 22 21 21 19 20 20 20 19 15 16 17 21 23 24 26 32
32 35 34 32 30 32 34 34 30 29 29 28 28 28 25 26 26 27 27 27 27 28 27 25 24 24 23 22 21 20 20 19 18 20 20 20 19 19 21 21 23 21 19
25 27 29 32 33 35 32 28 31 31 29 27 25 25 26 26 27 28 29 28 28 26 26 26 26 25 24 23 22 22 20 19 19 17 18 20 19 19 19 20 19 19 19
22 24 27 28 27 26 28 36 34 31 29 29 31 32 30 30 32 33 28 27 28 28 27 27 26 24 23 23 23 22 21 20 18 18 18 17 18 18 18 18 18 18 19
Wind_Direction
269 271 273 275 277 280 283 287 291 293 294 294 294 295 295 295 294 293 290 286 282 277 274 271 268 267 265 264 263 261 260 259 257 255 255 254 253 253 251 265 251 254 241
265 267 267 270 277 285 293 297 298 298 300 302 304 305 303 301 300 299 300 297 289 283 280 277 274 269 267 265 263 263 262 262 259 258 257 255 253 250 251 249 253 250 249
253 256 262 272 284 293 299 301 301 300 302 304 301 300 304 305 302 292 304 299 295 289 282 276 273 271 268 265 263 262 262 264 264 262 261 259 258 257 253 250 249 249 247
238 246 262 281 289 295 302 306 304 296 296 300 303 303 304 307 305 297 297 294 288 285 278 277 272 268 266 264 262 260 258 257 257 257 255 257 259 260 260 257 252 248 250
226 246 267 283 292 295 298 305 307 299 301 302 299 304 307 312 309 305 305 301 294 286 282 274 271 269 268 268 267 267 267 264 263 264 264 261 259 257 257 259 258 256 253
221 248 267 280 282 284 290 300 303 300 300 300 305 309 313 320 326 320 315 318 309 299 286 279 276 272 269 267 267 267 267 269 268 266 265 264 263 261 258 258 258 259 256
229 265 279 283 283 286 291 300 302 302 299 304 309 310 307 313 330 330 330 329 327 324 313 299 287 282 278 272 270 271 273 276 274 271 269 267 266 264 261 256 256 259 257
267 283 288 286 286 289 294 297 300 303 303 305 305 306 314 321 332 334 337 339 342 341 343 343 326 307 290 278 273 275 276 276 276 276 275 274 271 268 264 257 254 252 254
298 301 293 288 289 295 295 296 300 300 301 300 302 310 310 322 325 333 337 342 348 349 346 337 332 324 310 296 283 282 283 282 282 280 277 276 275 273 268 262 254 250 252
309 313 298 287 294 298 299 302 300 299 296 298 304 307 315 322 324 322 331 335 347 347 342 332 321 304 295 287 283 283 283 285 284 284 282 281 277 273 270 264 256 248 249
307 305 302 296 300 302 301 299 300 299 299 299 301 305 315 324 323 323 328 330 331 340 342 338 325 311 301 293 292 288 289 294 290 289 288 288 282 275 269 260 255 251 248
305 311 307 305 305 308 309 306 304 306 301 296 295 302 313 322 324 327 328 333 333 336 334 335 332 321 305 302 299 294 293 295 294 295 302 303 295 279 264 255 256 251 251
303 302 301 302 300 307 310 304 299 300 297 297 298 306 314 323 324 325 328 332 335 333 332 330 332 327 315 299 292 292 294 298 300 297 305 305 294 275 260 259 250 251 254
304 300 296 296 294 305 309 303 301 298 297 298 304 310 312 318 320 322 323 326 328 330 328 325 324 329 330 313 291 290 295 298 302 293 295 306 284 273 270 258 256 270 251
310 306 310 313 314 315 311 305 302 298 297 299 299 303 308 310 310 313 315 318 321 323 324 321 321 319 326 336 330 292 282 287 293 296 297 297 285 276 281 276 271 264 265
316 313 313 314 314 318 317 310 302 299 302 304 304 302 303 304 307 309 310 313 317 319 321 321 321 318 318 324 330 330 276 273 282 288 292 288 282 278 275 278 274 264 257
314 309 308 307 304 306 309 310 307 304 299 299 298 299 301 304 306 306 309 312 315 316 319 320 320 319 318 314 323 329 328 267 266 271 277 278 270 270 271 273 272 267 264
312 306 304 303 303 299 297 300 304 304 303 300 298 298 299 300 301 304 308 311 314 316 318 317 319 321 320 318 313 321 322 292 257 257 259 265 263 258 263 269 273 273 273
308 308 306 306 307 302 299 298 296 296 297 295 297 298 298 299 300 304 305 308 311 312 313 317 319 320 320 319 316 318 323 318 254 259 260 260 261 258 256 258 264 266 266
309 303 302 304 304 301 299 300 297 292 292 290 290 292 294 296 296 297 300 303 305 307 310 312 317 319 321 322 320 319 322 328 286 253 256 262 263 262 259 259 263 263 264
305 303 300 301 302 297 297 298 296 294 286 291 290 292 292 292 292 295 296 297 301 305 308 310 313 316 317 319 320 320 320 319 320 284 269 265 259 258 259 260 261 264 266
300 298 295 300 301 299 296 294 296 289 287 291 293 293 294 295 294 294 294 295 297 299 302 305 308 312 314 316 317 317 317 315 310 305 308 292 274 263 258 257 259 263 263
301 300 297 296 298 298 296 295 295 291 287 292 294 296 298 297 296 297 298 298 297 297 297 298 301 304 306 308 311 312 312 312 308 304 293 278 291 300 284 271 266 265 262
300 303 309 310 305 300 301 299 296 288 289 293 293 295 297 298 300 300 299 299 299 299 297 296 295 296 298 301 301 304 307 307 306 304 300 298 293 277 274 281 285 290 283
303 303 303 302 305 309 289 297 305 303 297 296 295 296 299 303 302 300 300 299 298 298 297 298 299 297 297 297 297 297 297 299 300 298 297 296 293 293 293 292 291 289 287
308 300 298 300 305 305 304 308 301 289 296 299 299 296 297 302 308 305 307 308 306 304 300 297 297 295 294 293 294 294 294 294 293 294 293 291 291 291 289 289 290 291 293
Height
3121 3120 3120 3119 3119 3118 3117 3116 3114 3112 3111 3109 3107 3106 3103 3101 3098 3094 3092 3089 3086 3085 3083 3081 3081 3082 3081 3082 3082 3082 3082 3085 3086 3087 3089 3091 3093 3096 3099 3103 3103 3100 3098
3112 3112 3112 3112 3112 3112 3111 3110 3108 3106 3104 3102 3099 3097 3096 3094 3090 3088 3084 3080 3076 3073 3071 3069 3068 3068 3068 3068 3069 3069 3069 3070 3074 3074 3075 3075 3079 3081 3085 3091 3093 3095 3095
3104 3105 3106 3106 3107 3106 3106 3104 3102 3101 3099 3096 3094 3091 3088 3085 3082 3079 3076 3072 3066 3062 3059 3056 3055 3054 3053 3054 3054 3055 3057 3058 3061 3063 3063 3063 3062 3067 3070 3075 3080 3084 3085
3097 3099 3101 3102 3102 3102 3101 3099 3097 3094 3092 3089 3087 3084 3082 3079 3075 3071 3066 3061 3057 3051 3046 3044 3041 3039 3039 3039 3039 3040 3040 3041 3043 3045 3047 3048 3052 3053 3054 3057 3062 3068 3071
3093 3096 3098 3098 3097 3097 3096 3094 3091 3088 3086 3084 3080 3078 3076 3072 3067 3060 3054 3049 3045 3039 3035 3030 3028 3027 3026 3027 3028 3029 3031 3032 3033 3034 3035 3038 3038 3039 3040 3040 3047 3050 3056
3091 3093 3094 3094 3093 3092 3091 3090 3088 3084 3081 3078 3075 3072 3068 3064 3058 3050 3045 3041 3035 3030 3023 3019 3016 3016 3016 3016 3017 3017 3018 3020 3021 3022 3021 3022 3024 3027 3027 3028 3032 3034 3041
3088 3090 3090 3090 3089 3088 3087 3085 3082 3080 3076 3072 3069 3065 3062 3059 3053 3046 3040 3035 3029 3022 3015 3011 3009 3009 3009 3009 3008 3009 3010 3011 3011 3011 3011 3010 3010 3012 3013 3016 3018 3019 3024
3086 3086 3086 3086 3085 3084 3081 3080 3078 3074 3070 3066 3064 3061 3058 3053 3048 3041 3036 3030 3024 3018 3012 3006 3003 3003 3002 3002 3002 3003 3003 3002 3002 3001 3001 2999 2999 3000 3001 3003 3006 3007 3009
3084 3083 3082 3081 3080 3078 3077 3075 3072 3068 3064 3061 3059 3056 3052 3048 3042 3037 3032 3026 3019 3014 3009 3006 3001 3000 2998 2998 2997 2997 2997 2994 2994 2992 2992 2990 2989 2988 2989 2991 2993 2995 2996
3082 3080 3078 3077 3075 3073 3070 3067 3066 3063 3060 3056 3054 3051 3047 3041 3037 3033 3029 3024 3017 3012 3007 3004 3001 2998 2996 2994 2991 2990 2989 2986 2985 2983 2981 2979 2978 2977 2977 2979 2981 2983 2986
3079 3077 3074 3072 3070 3067 3064 3062 3059 3057 3053 3050 3048 3046 3041 3036 3033 3029 3025 3020 3014 3009 3004 3000 2997 2994 2991 2989 2986 2983 2981 2978 2976 2974 2971 2969 2966 2964 2964 2966 2970 2971 2975
3073 3071 3069 3067 3065 3063 3060 3057 3055 3053 3049 3047 3044 3039 3035 3031 3029 3024 3020 3016 3011 3005 3001 2996 2992 2988 2985 2981 2978 2976 2973 2970 2967 2965 2962 2959 2956 2954 2955 2957 2960 2962 2965
3069 3066 3064 3062 3061 3058 3054 3051 3049 3047 3044 3042 3039 3033 3030 3027 3024 3019 3015 3011 3006 3002 2997 2992 2987 2983 2979 2976 2972 2969 2967 2963 2960 2958 2955 2953 2949 2949 2949 2951 2952 2955 2957
3063 3061 3057 3055 3053 3051 3048 3046 3043 3041 3039 3035 3033 3031 3027 3024 3020 3016 3012 3007 3003 2998 2993 2988 2983 2978 2973 2968 2964 2962 2960 2958 2955 2952 2951 2948 2947 2946 2946 2944 2946 2947 2948
3059 3056 3053 3051 3048 3046 3042 3039 3038 3035 3032 3031 3028 3026 3022 3019 3015 3011 3007 3003 2999 2994 2989 2984 2978 2973 2967 2962 2958 2954 2953 2952 2951 2948 2946 2945 2945 2944 2943 2943 2945 2945 2946
3053 3050 3048 3046 3044 3041 3038 3035 3032 3029 3027 3026 3023 3021 3018 3015 3012 3008 3004 3000 2995 2990 2985 2980 2974 2969 2963 2957 2952 2947 2945 2945 2944 2944 2942 2941 2941 2941 2941 2941 2942 2943 2944
3049 3045 3043 3040 3037 3035 3032 3029 3027 3025 3022 3019 3017 3015 3012 3010 3006 3003 3000 2996 2992 2986 2981 2976 2971 2965 2960 2955 2949 2943 2938 2937 2937 2937 2937 2937 2937 2937 2938 2938 2939 2939 2940
3044 3040 3037 3034 3030 3028 3024 3023 3020 3018 3017 3015 3012 3009 3006 3003 3000 2997 2994 2990 2986 2982 2978 2973 2968 2963 2957 2952 2946 2940 2935 2929 2930 2930 2931 2931 2932 2932 2932 2933 2934 2934 2935
3038 3035 3032 3029 3027 3023 3019 3017 3013 3012 3010 3007 3005 3003 3000 2997 2994 2990 2987 2983 2980 2976 2972 2968 2964 2959 2954 2948 2942 2937 2932 2924 2922 2925 2926 2927 2927 2927 2927 2926 2926 2928 2929
3030 3027 3024 3023 3020 3017 3014 3011 3009 3005 3002 2999 2997 2994 2992 2990 2987 2983 2980 2977 2974 2970 2967 2963 2958 2954 2950 2946 2941 2934 2928 2924 2920 2918 2919 2920 2921 2921 2921 2921 2921 2921 2922
3023 3019 3016 3014 3013 3010 3007 3005 3002 2999 2994 2993 2990 2988 2985 2982 2980 2978 2974 2970 2967 2964 2960 2957 2954 2950 2945 2940 2937 2933 2928 2923 2919 2917 2916 2915 2914 2914 2914 2914 2914 2914 2915
3015 3012 3006 3006 3005 3000 2998 2997 2995 2990 2987 2987 2984 2981 2978 2975 2973 2970 2967 2965 2961 2958 2955 2952 2947 2944 2941 2937 2933 2928 2926 2922 2917 2914 2912 2911 2910 2908 2908 2907 2907 2906 2907
3006 3002 2998 2997 2996 2991 2987 2987 2985 2981 2980 2979 2976 2974 2971 2968 2966 2963 2960 2957 2955 2952 2949 2945 2942 2938 2935 2932 2929 2925 2921 2918 2916 2912 2909 2907 2905 2904 2902 2901 2900 2899 2897
2998 2995 2992 2989 2988 2984 2980 2977 2975 2973 2971 2970 2967 2964 2962 2960 2957 2955 2952 2949 2947 2944 2942 2939 2936 2933 2930 2926 2923 2920 2917 2914 2911 2909 2906 2903 2901 2899 2898 2897 2896 2894 2892
2988 2987 2984 2981 2978 2974 2971 2969 2968 2967 2964 2962 2960 2956 2954 2951 2949 2947 2943 2941 2937 2934 2932 2930 2930 2927 2924 2920 2917 2915 2912 2909 2907 2903 2901 2900 2897 2894 2892 2890 2890 2889 2888
2981 2978 2975 2972 2970 2967 2965 2962 2960 2957 2957 2956 2953 2950 2948 2944 2941 2939 2937 2933 2930 2927 2924 2921 2919 2916 2915 2914 2911 2908 2906 2903 2900 2898 2895 2894 2893 2890 2888 2886 2884 2882 2882